Temp
-12 -12 -12 -11 -11 -11 -11 -11 -11 -11 -11 -11 -11 -12 -12 -12 -12 -13 -13 -13 -13 -13 -13 -13 -13 -13 -13 -13 -13 -13 -13 -13 -13 -13 -14 -15 -16 -16 -16 -16 -17 -17 -17 -17 -17 -20 -21 -25 -26 -28 -28 -29 -30 -30
-12 -12 -12 -12 -11 -11 -11 -11 -11 -11 -11 -12 -12 -12 -13 -13 -13 -13 -13 -13 -13 -13 -13 -13 -13 -13 -13 -13 -13 -14 -13 -13 -13 -14 -15 -16 -16 -17 -17 -17 -17 -17 -17 -18 -18 -21 -24 -26 -28 -29 -29 -29 -30 -30
-12 -12 -12 -12 -12 -12 -12 -12 -12 -12 -12 -12 -12 -13 -13 -13 -13 -14 -14 -13 -14 -14 -13 -13 -13 -13 -13 -14 -14 -14 -13 -13 -14 -14 -16 -17 -17 -17 -17 -17 -18 -17 -18 -18 -19 -22 -25 -26 -28 -29 -29 -30 -29 -29
-12 -12 -12 -12 -12 -12 -12 -12 -12 -12 -13 -13 -13 -13 -13 -14 -14 -14 -14 -14 -14 -14 -14 -13 -13 -14 -14 -14 -14 -14 -14 -14 -14 -16 -17 -17 -18 -17 -18 -18 -18 -18 -18 -19 -22 -24 -25 -29 -29 -29 -29 -29 -29 -29
-13 -13 -13 -13 -13 -13 -12 -12 -12 -12 -13 -13 -14 -14 -14 -14 -14 -14 -14 -14 -14 -14 -14 -14 -14 -14 -14 -14 -14 -14 -15 -15 -16 -16 -17 -17 -18 -18 -18 -18 -18 -18 -19 -21 -23 -26 -27 -28 -28 -29 -29 -29 -29 -28
-13 -13 -13 -13 -13 -13 -13 -13 -13 -13 -13 -14 -14 -15 -14 -14 -14 -15 -14 -14 -14 -14 -14 -14 -14 -14 -14 -14 -15 -15 -15 -15 -16 -17 -18 -18 -18 -18 -19 -19 -18 -20 -21 -22 -24 -26 -29 -28 -28 -29 -29 -29 -28 -28
-13 -14 -13 -13 -13 -13 -13 -14 -13 -13 -14 -14 -14 -15 -14 -14 -14 -15 -15 -14 -14 -14 -14 -14 -14 -14 -15 -15 -15 -15 -16 -16 -17 -18 -18 -18 -19 -19 -19 -19 -19 -21 -22 -24 -25 -26 -28 -30 -29 -29 -29 -28 -28 -28
-14 -14 -14 -14 -14 -14 -14 -14 -14 -14 -14 -14 -15 -15 -15 -14 -14 -14 -14 -14 -14 -14 -14 -14 -14 -15 -15 -15 -16 -16 -16 -17 -18 -19 -19 -19 -19 -19 -19 -20 -21 -22 -23 -25 -27 -28 -28 -29 -29 -29 -29 -28 -28 -27
-14 -15 -15 -15 -15 -15 -15 -15 -14 -14 -15 -15 -15 -14 -14 -14 -14 -14 -14 -14 -14 -14 -14 -15 -15 -15 -15 -16 -16 -17 -18 -19 -19 -19 -19 -19 -20 -20 -20 -21 -22 -23 -25 -26 -29 -30 -30 -29 -29 -29 -28 -28 -27 -27
-15 -16 -15 -15 -15 -16 -15 -14 -14 -15 -15 -15 -14 -14 -14 -14 -14 -14 -14 -14 -14 -14 -14 -15 -16 -16 -16 -17 -18 -18 -19 -19 -19 -20 -20 -20 -20 -20 -21 -21 -22 -24 -26 -27 -29 -30 -30 -30 -29 -28 -28 -28 -27 -27
-15 -15 -14 -14 -14 -15 -15 -15 -15 -15 -14 -14 -14 -14 -14 -14 -15 -15 -15 -15 -15 -15 -15 -16 -16 -17 -17 -18 -19 -19 -20 -20 -20 -20 -20 -20 -20 -21 -22 -22 -24 -25 -26 -28 -29 -29 -30 -30 -29 -29 -28 -28 -27 -27
-14 -14 -13 -13 -14 -14 -14 -14 -14 -14 -14 -14 -14 -14 -15 -15 -15 -15 -15 -15 -15 -15 -16 -17 -18 -18 -19 -19 -20 -20 -21 -21 -20 -21 -20 -21 -22 -23 -24 -25 -26 -26 -27 -28 -30 -30 -30 -29 -29 -28 -28 -28 -27 -27
-14 -14 -14 -14 -14 -14 -14 -14 -14 -14 -14 -15 -15 -15 -15 -15 -15 -15 -15 -15 -16 -17 -18 -18 -19 -19 -20 -20 -21 -21 -21 -21 -21 -21 -22 -22 -24 -24 -25 -26 -28 -28 -28 -29 -30 -30 -30 -29 -29 -28 -28 -28 -27 -27
-14 -14 -14 -14 -14 -14 -15 -15 -15 -15 -15 -15 -15 -15 -15 -15 -15 -16 -16 -17 -18 -18 -19 -19 -20 -20 -21 -21 -21 -21 -21 -22 -22 -23 -23 -24 -26 -26 -27 -27 -29 -29 -30 -31 -31 -31 -30 -29 -29 -28 -28 -28 -27 -27
-14 -14 -14 -15 -15 -15 -15 -15 -15 -15 -15 -15 -15 -16 -16 -16 -17 -18 -18 -19 -19 -20 -20 -20 -21 -21 -22 -22 -22 -22 -22 -23 -23 -24 -24 -26 -27 -28 -28 -29 -30 -31 -32 -31 -31 -31 -31 -29 -29 -29 -28 -28 -27 -27
-14 -14 -15 -15 -15 -15 -15 -15 -15 -15 -16 -16 -16 -17 -18 -19 -19 -19 -20 -20 -20 -21 -21 -22 -22 -22 -22 -22 -22 -23 -24 -24 -24 -25 -26 -27 -28 -29 -29 -30 -31 -32 -32 -31 -31 -31 -31 -30 -29 -29 -28 -28 -27 -27
-15 -16 -16 -16 -16 -16 -16 -16 -16 -17 -17 -18 -19 -20 -20 -20 -20 -20 -21 -21 -22 -22 -22 -23 -23 -23 -23 -23 -23 -24 -25 -25 -26 -27 -27 -28 -29 -30 -31 -32 -32 -32 -32 -32 -31 -31 -31 -30 -29 -29 -28 -28 -28 -27
-18 -17 -17 -17 -17 -18 -19 -19 -19 -19 -20 -20 -21 -21 -21 -21 -21 -22 -22 -22 -23 -23 -23 -23 -24 -23 -24 -24 -24 -25 -26 -27 -27 -28 -29 -29 -29 -30 -32 -33 -32 -32 -32 -32 -31 -31 -31 -30 -30 -29 -29 -28 -28 -28
-19 -19 -20 -20 -20 -20 -20 -21 -21 -21 -21 -21 -21 -22 -22 -22 -22 -23 -23 -23 -23 -24 -24 -24 -24 -25 -25 -25 -26 -27 -27 -28 -28 -29 -30 -30 -30 -32 -33 -33 -33 -33 -32 -32 -32 -31 -31 -30 -30 -29 -29 -29 -28 -28
-22 -22 -22 -22 -21 -21 -21 -22 -22 -22 -22 -22 -22 -23 -23 -23 -23 -24 -24 -24 -25 -25 -25 -26 -26 -26 -27 -27 -27 -28 -28 -29 -29 -30 -31 -31 -32 -33 -33 -33 -33 -33 -33 -33 -32 -31 -31 -31 -30 -30 -29 -29 -28 -28
-22 -22 -22 -22 -22 -23 -23 -23 -23 -23 -23 -23 -24 -24 -24 -24 -24 -25 -25 -26 -26 -27 -27 -27 -28 -28 -27 -27 -28 -28 -29 -30 -31 -31 -32 -32 -33 -33 -33 -33 -33 -33 -33 -33 -32 -32 -31 -31 -30 -30 -29 -29 -29 -28
-24 -24 -24 -24 -24 -24 -24 -24 -24 -25 -25 -25 -25 -25 -26 -26 -26 -27 -27 -28 -28 -28 -28 -29 -29 -29 -29 -29 -29 -30 -30 -31 -32 -33 -33 -33 -33 -33 -34 -33 -33 -33 -33 -33 -32 -32 -31 -31 -31 -30 -30 -29 -29 -29
-26 -25 -25 -25 -25 -26 -26 -25 -25 -26 -26 -26 -26 -27 -27 -28 -28 -28 -29 -29 -29 -29 -30 -30 -30 -30 -30 -30 -31 -31 -32 -32 -33 -33 -33 -34 -34 -33 -34 -34 -34 -34 -34 -33 -33 -32 -32 -31 -31 -31 -30 -30 -29 -29
-27 -27 -27 -27 -26 -27 -27 -27 -27 -28 -28 -28 -28 -29 -29 -29 -30 -30 -30 -30 -30 -31 -31 -31 -31 -32 -32 -33 -33 -33 -33 -33 -33 -33 -34 -34 -34 -34 -34 -34 -34 -34 -34 -33 -33 -32 -32 -31 -31 -31 -30 -30 -30 -29
-28 -28 -27 -28 -29 -29 -28 -29 -29 -29 -29 -29 -29 -29 -29 -30 -30 -31 -31 -31 -32 -32 -32 -32 -32 -33 -33 -33 -33 -33 -33 -34 -34 -34 -34 -34 -34 -34 -34 -34 -34 -34 -34 -34 -33 -32 -32 -31 -31 -31 -31 -30 -30 -30
-30 -30 -29 -30 -30 -29 -29 -29 -29 -30 -30 -30 -30 -30 -31 -31 -32 -32 -32 -32 -32 -32 -32 -33 -33 -33 -33 -34 -34 -34 -34 -34 -34 -34 -34 -34 -34 -34 -34 -34 -34 -34 -34 -34 -33 -32 -32 -32 -31 -31 -31 -30 -30 -30
-31 -31 -31 -31 -30 -30 -30 -31 -31 -31 -31 -31 -32 -32 -32 -32 -33 -33 -33 -33 -33 -33 -33 -33 -34 -34 -34 -34 -34 -34 -34 -34 -34 -34 -34 -34 -34 -34 -34 -34 -34 -34 -34 -34 -34 -33 -32 -32 -32 -31 -31 -31 -30 -30
-31 -31 -31 -31 -31 -31 -31 -31 -31 -32 -32 -32 -32 -32 -32 -33 -33 -33 -33 -33 -33 -33 -33 -34 -34 -34 -34 -34 -34 -34 -34 -34 -34 -34 -34 -34 -34 -34 -34 -34 -34 -34 -34 -34 -34 -33 -33 -32 -32 -32 -31 -31 -31 -30
-31 -32 -31 -31 -31 -31 -31 -32 -32 -32 -33 -33 -33 -33 -33 -33 -33 -33 -33 -33 -33 -33 -33 -34 -34 -34 -34 -34 -34 -34 -34 -34 -34 -34 -34 -34 -34 -34 -34 -34 -34 -34 -34 -34 -34 -34 -33 -33 -33 -32 -32 -32 -31 -31
-32 -32 -31 -31 -31 -31 -32 -32 -33 -33 -33 -33 -33 -33 -33 -33 -33 -33 -33 -33 -33 -33 -34 -34 -34 -34 -34 -34 -34 -34 -34 -34 -34 -34 -34 -34 -34 -34 -34 -34 -34 -34 -34 -34 -34 -34 -34 -33 -33 -33 -32 -32 -32 -32
-32 -32 -32 -32 -32 -32 -33 -33 -33 -33 -33 -33 -33 -33 -33 -33 -33 -34 -33 -33 -33 -33 -34 -34 -34 -34 -34 -34 -34 -34 -34 -34 -34 -34 -34 -34 -34 -34 -34 -34 -34 -34 -34 -34 -34 -34 -34 -34 -34 -33 -33 -33 -33 -32
-32 -32 -32 -32 -32 -33 -33 -33 -33 -33 -33 -33 -33 -33 -33 -33 -33 -34 -34 -33 -33 -34 -34 -34 -34 -34 -34 -34 -34 -34 -34 -34 -34 -34 -34 -34 -34 -34 -34 -34 -34 -34 -34 -34 -34 -34 -34 -34 -34 -34 -33 -33 -33 -33
-32 -32 -32 -32 -33 -33 -33 -33 -33 -33 -33 -33 -33 -33 -33 -33 -34 -34 -34 -33 -33 -34 -34 -34 -34 -34 -34 -34 -34 -34 -34 -34 -34 -34 -34 -34 -34 -35 -34 -34 -34 -34 -34 -34 -34 -34 -34 -34 -34 -34 -34 -33 -33 -33
Height
5734 5743 5750 5757 5763 5768 5773 5777 5780 5784 5787 5789 5791 5792 5793 5795 5796 5799 5799 5798 5796 5795 5794 5793 5791 5789 5787 5784 5781 5776 5771 5766 5760 5755 5749 5742 5734 5729 5722 5715 5707 5699 5688 5677 5663 5646 5637 5619 5612 5602 5593 5588 5579 5575
5725 5733 5741 5747 5754 5759 5764 5768 5771 5775 5778 5781 5783 5784 5785 5785 5786 5788 5790 5789 5787 5788 5787 5786 5784 5782 5778 5775 5771 5767 5762 5755 5751 5745 5738 5731 5724 5719 5713 5705 5698 5691 5683 5668 5654 5641 5626 5615 5603 5597 5592 5584 5581 5578
5714 5722 5730 5737 5743 5748 5753 5758 5762 5766 5769 5771 5773 5775 5777 5778 5778 5779 5779 5778 5778 5777 5777 5776 5774 5771 5768 5764 5761 5756 5751 5747 5743 5736 5728 5722 5715 5709 5704 5698 5689 5678 5665 5653 5644 5632 5618 5606 5600 5594 5590 5585 5581 5578
5703 5711 5718 5725 5731 5736 5741 5746 5751 5755 5759 5761 5764 5765 5766 5768 5768 5769 5769 5768 5768 5766 5764 5764 5761 5759 5756 5753 5751 5746 5741 5738 5732 5725 5718 5713 5709 5702 5696 5690 5680 5669 5656 5644 5632 5624 5619 5606 5596 5591 5589 5585 5581 5578
5690 5699 5707 5714 5719 5724 5729 5735 5738 5743 5747 5750 5753 5754 5755 5757 5758 5759 5758 5757 5757 5759 5755 5753 5752 5749 5745 5742 5740 5735 5731 5726 5721 5715 5711 5707 5702 5696 5689 5678 5670 5660 5648 5637 5626 5615 5607 5603 5600 5593 5588 5585 5582 5578
5678 5687 5694 5701 5706 5711 5716 5722 5726 5730 5732 5737 5741 5742 5743 5746 5747 5747 5745 5747 5746 5746 5743 5742 5740 5736 5734 5731 5728 5724 5720 5715 5711 5706 5703 5698 5693 5687 5678 5669 5660 5648 5636 5627 5619 5608 5602 5598 5596 5594 5589 5585 5582 5578
5666 5673 5681 5687 5693 5697 5702 5707 5713 5718 5721 5724 5729 5730 5731 5732 5734 5734 5733 5735 5734 5733 5732 5729 5726 5726 5722 5719 5716 5712 5707 5704 5701 5698 5693 5689 5682 5677 5668 5660 5651 5640 5629 5619 5610 5606 5601 5594 5595 5592 5589 5585 5582 5578
5652 5660 5666 5673 5677 5682 5688 5691 5698 5704 5709 5711 5714 5715 5718 5719 5720 5720 5720 5721 5721 5719 5717 5714 5714 5713 5710 5706 5703 5699 5696 5693 5691 5686 5682 5678 5672 5666 5659 5650 5640 5630 5620 5612 5602 5599 5596 5592 5592 5590 5588 5584 5582 5578
5637 5644 5651 5656 5661 5667 5673 5677 5684 5690 5693 5697 5699 5702 5703 5705 5707 5708 5707 5707 5705 5707 5703 5702 5701 5700 5696 5693 5690 5688 5686 5684 5681 5677 5673 5668 5662 5655 5647 5638 5629 5620 5614 5608 5600 5596 5592 5590 5589 5588 5586 5583 5581 5578
5620 5627 5634 5640 5645 5652 5658 5662 5669 5676 5679 5682 5687 5689 5689 5692 5692 5694 5693 5692 5691 5689 5689 5689 5688 5686 5684 5681 5678 5678 5676 5674 5670 5669 5663 5658 5651 5645 5637 5629 5620 5612 5604 5599 5596 5593 5590 5589 5587 5587 5585 5582 5581 5578
5603 5611 5619 5625 5632 5638 5641 5647 5655 5660 5665 5669 5672 5676 5677 5676 5677 5677 5676 5678 5677 5677 5678 5677 5674 5673 5670 5672 5670 5669 5666 5663 5660 5657 5652 5647 5642 5635 5626 5618 5611 5603 5597 5594 5589 5586 5585 5586 5586 5586 5583 5582 5580 5578
5590 5597 5604 5612 5619 5623 5626 5635 5641 5646 5650 5656 5660 5659 5661 5661 5661 5664 5663 5662 5664 5664 5664 5662 5662 5661 5661 5661 5661 5661 5658 5654 5650 5646 5639 5634 5630 5623 5615 5607 5601 5595 5592 5587 5584 5582 5581 5582 5584 5584 5583 5581 5580 5578
5575 5584 5591 5599 5603 5608 5615 5622 5627 5629 5636 5641 5642 5640 5645 5647 5647 5649 5649 5650 5650 5650 5651 5651 5651 5652 5652 5653 5652 5650 5648 5645 5640 5635 5628 5623 5618 5611 5605 5599 5593 5590 5584 5582 5581 5579 5578 5580 5582 5582 5582 5580 5579 5578
5563 5570 5577 5583 5589 5596 5602 5606 5610 5614 5620 5624 5626 5628 5630 5631 5634 5636 5637 5637 5637 5638 5639 5639 5640 5643 5642 5642 5641 5639 5637 5635 5629 5625 5618 5614 5605 5601 5595 5591 5587 5586 5583 5579 5577 5578 5577 5578 5580 5581 5581 5579 5578 5578
5551 5557 5563 5572 5578 5582 5587 5590 5594 5600 5606 5608 5611 5612 5616 5618 5621 5621 5623 5624 5626 5628 5629 5630 5631 5632 5632 5631 5631 5629 5625 5621 5617 5612 5607 5602 5595 5590 5588 5583 5582 5580 5580 5579 5577 5576 5576 5577 5578 5579 5580 5578 5578 5578
5536 5544 5550 5557 5563 5567 5571 5575 5580 5586 5588 5593 5597 5600 5604 5607 5609 5610 5612 5615 5617 5617 5618 5620 5622 5622 5623 5623 5621 5617 5614 5610 5605 5600 5598 5591 5586 5583 5579 5576 5573 5577 5578 5577 5576 5574 5573 5574 5576 5577 5578 5578 5577 5578
5528 5533 5538 5544 5549 5552 5557 5563 5567 5570 5578 5583 5587 5591 5594 5595 5598 5602 5604 5605 5606 5608 5609 5610 5612 5613 5612 5610 5609 5606 5603 5599 5594 5589 5586 5581 5578 5576 5574 5574 5570 5572 5574 5575 5574 5573 5572 5573 5574 5576 5577 5577 5577 5578
5516 5522 5527 5533 5537 5541 5547 5552 5558 5565 5570 5574 5577 5579 5583 5587 5589 5592 5594 5595 5597 5599 5600 5601 5603 5602 5602 5601 5599 5597 5590 5586 5583 5578 5575 5570 5569 5568 5570 5570 5569 5569 5570 5572 5572 5572 5571 5572 5573 5574 5575 5576 5576 5577
5505 5511 5516 5523 5528 5534 5541 5547 5552 5556 5560 5564 5567 5570 5575 5577 5580 5584 5585 5586 5588 5590 5591 5592 5591 5590 5589 5589 5587 5584 5579 5572 5570 5568 5565 5563 5562 5561 5562 5565 5566 5566 5568 5568 5569 5569 5569 5570 5571 5573 5574 5575 5576 5577
5499 5504 5509 5516 5523 5528 5532 5537 5543 5548 5553 5558 5560 5563 5566 5569 5572 5574 5576 5577 5579 5580 5581 5581 5581 5580 5578 5576 5576 5572 5566 5562 5560 5557 5557 5555 5554 5555 5556 5558 5561 5562 5564 5565 5566 5566 5567 5568 5569 5570 5572 5574 5574 5576
5493 5498 5503 5509 5514 5520 5525 5530 5535 5541 5545 5549 5551 5554 5558 5561 5564 5566 5568 5569 5570 5569 5570 5570 5567 5566 5566 5564 5562 5559 5556 5552 5549 5550 5549 5546 5547 5548 5548 5550 5554 5557 5559 5561 5562 5563 5564 5565 5566 5568 5569 5572 5573 5575
5488 5494 5499 5505 5509 5515 5520 5525 5529 5534 5538 5541 5545 5548 5551 5554 5556 5558 5560 5561 5561 5560 5558 5558 5558 5556 5553 5551 5549 5548 5545 5540 5537 5540 5541 5541 5541 5542 5543 5543 5547 5550 5553 5556 5558 5560 5561 5562 5563 5565 5567 5569 5571 5573
5485 5492 5496 5501 5506 5511 5514 5521 5525 5528 5532 5535 5538 5542 5545 5548 5550 5551 5552 5551 5550 5551 5550 5549 5547 5545 5544 5541 5539 5538 5535 5532 5529 5532 5534 5536 5537 5537 5538 5539 5541 5545 5548 5551 5554 5557 5558 5559 5560 5562 5564 5566 5569 5571
5484 5489 5494 5500 5503 5508 5513 5516 5520 5523 5525 5529 5533 5537 5539 5540 5541 5543 5545 5545 5545 5544 5543 5542 5539 5538 5536 5532 5528 5529 5527 5525 5525 5527 5530 5531 5532 5533 5534 5535 5536 5539 5542 5546 5549 5553 5555 5556 5557 5559 5561 5564 5566 5569
5481 5487 5494 5497 5499 5503 5504 5511 5516 5519 5522 5524 5529 5531 5535 5537 5537 5540 5540 5541 5539 5538 5535 5532 5531 5530 5529 5527 5523 5524 5524 5523 5523 5525 5526 5527 5528 5529 5530 5531 5532 5534 5537 5541 5544 5548 5551 5553 5554 5556 5559 5561 5564 5566
5478 5485 5491 5494 5495 5500 5504 5511 5514 5517 5521 5522 5524 5527 5533 5532 5534 5532 5534 5535 5533 5530 5528 5525 5526 5525 5525 5523 5522 5522 5521 5520 5520 5521 5522 5523 5524 5525 5526 5527 5528 5530 5532 5536 5539 5543 5547 5549 5551 5553 5556 5558 5561 5564
5478 5483 5488 5490 5494 5499 5504 5505 5508 5514 5517 5516 5521 5526 5526 5528 5529 5530 5530 5529 5527 5525 5524 5523 5523 5522 5520 5519 5518 5517 5517 5516 5517 5517 5518 5519 5521 5522 5523 5524 5525 5526 5528 5531 5535 5538 5542 5544 5547 5550 5553 5555 5558 5560
5477 5481 5485 5489 5492 5495 5499 5503 5506 5510 5513 5516 5519 5520 5523 5526 5528 5527 5526 5525 5525 5523 5521 5520 5519 5518 5517 5516 5515 5513 5512 5512 5511 5512 5513 5515 5516 5517 5518 5519 5520 5522 5524 5527 5530 5533 5537 5540 5543 5546 5548 5551 5554 5556
5472 5476 5481 5485 5489 5493 5496 5500 5504 5508 5511 5514 5516 5518 5520 5522 5524 5524 5524 5523 5523 5521 5518 5516 5516 5515 5514 5513 5511 5509 5507 5506 5504 5505 5507 5509 5510 5512 5513 5514 5515 5517 5520 5523 5525 5528 5532 5535 5538 5541 5544 5547 5549 5551
5472 5475 5479 5483 5487 5490 5495 5500 5504 5507 5509 5512 5514 5516 5518 5519 5520 5521 5520 5519 5518 5516 5513 5512 5511 5511 5510 5509 5508 5506 5503 5501 5499 5500 5502 5504 5506 5507 5508 5509 5510 5512 5515 5518 5521 5524 5527 5531 5534 5536 5539 5542 5544 5546
5471 5474 5478 5482 5486 5489 5494 5497 5500 5504 5507 5509 5511 5514 5516 5516 5516 5514 5514 5514 5512 5510 5508 5506 5505 5505 5505 5504 5504 5502 5501 5499 5498 5497 5497 5499 5500 5501 5502 5504 5505 5507 5509 5512 5516 5519 5522 5525 5528 5531 5534 5536 5538 5540
5471 5474 5478 5481 5484 5488 5491 5495 5498 5502 5505 5507 5509 5510 5511 5512 5512 5511 5509 5508 5507 5504 5502 5500 5499 5498 5498 5497 5497 5496 5496 5495 5494 5493 5493 5493 5493 5495 5497 5498 5499 5501 5502 5506 5509 5513 5516 5519 5522 5525 5528 5530 5532 5534
5468 5472 5476 5479 5481 5484 5489 5492 5496 5499 5501 5503 5504 5505 5505 5505 5505 5505 5504 5503 5501 5499 5496 5494 5492 5491 5490 5489 5489 5488 5488 5488 5487 5486 5486 5486 5486 5488 5490 5492 5493 5495 5497 5500 5503 5506 5509 5512 5515 5518 5521 5523 5525 5527
Wind_Speed
50 47 45 43 42 41 40 38 37 37 36 36 35 36 38 35 34 36 37 33 34 37 39 40 38 37 40 43 46 46 50 54 57 60 59 60 56 58 60 62 65 67 71 74 74 75 71 65 53 47 45 38 26 21
53 50 48 47 46 45 44 43 42 41 40 38 36 39 41 38 38 37 40 39 41 41 41 39 38 40 44 48 51 55 56 60 61 61 57 56 55 57 58 61 64 66 71 70 73 70 60 52 45 42 39 25 16 20
57 54 52 51 50 50 49 48 47 45 44 42 40 41 40 40 40 41 42 46 42 38 43 41 41 45 47 48 55 58 59 63 62 57 52 52 54 55 59 62 64 70 70 70 70 64 53 46 41 39 29 11 16 21
61 58 56 55 54 54 54 52 49 47 47 46 45 44 42 45 45 45 45 47 42 41 46 46 46 53 55 57 59 57 59 61 57 50 49 51 52 56 57 60 64 66 68 69 64 57 46 32 35 32 16 12 16 22
62 60 58 58 57 58 58 55 52 51 52 49 47 46 47 48 49 47 47 46 42 43 46 50 55 56 59 60 58 57 56 55 50 48 48 50 52 55 57 60 63 64 66 64 58 46 41 35 27 18 10 12 18 17
63 61 60 61 62 62 61 59 57 55 55 54 50 53 49 50 50 49 52 50 46 44 50 58 56 60 61 57 58 58 54 52 49 46 47 50 52 54 58 60 62 64 63 60 52 40 31 30 20 11 11 15 18 16
66 64 64 65 65 64 63 62 59 60 58 59 58 52 51 53 53 53 52 48 52 59 56 55 61 60 57 57 58 54 49 47 46 46 47 49 52 55 57 60 63 61 58 53 45 36 25 20 16 11 14 18 17 16
70 68 68 68 68 68 70 69 71 65 63 64 61 54 57 53 52 51 49 51 51 53 57 60 61 60 60 58 52 46 44 44 44 45 46 50 51 54 57 58 59 58 54 46 35 32 27 15 12 12 15 17 14 15
70 70 71 75 77 75 71 74 77 69 68 66 55 51 49 45 46 50 53 54 54 57 59 60 59 56 56 51 46 42 41 42 43 43 47 49 52 54 55 57 58 56 50 38 26 25 26 15 10 11 13 14 11 15
77 77 77 80 81 80 82 80 74 72 61 60 55 52 53 54 51 52 59 66 65 62 62 60 58 54 47 44 40 39 40 41 42 44 47 50 51 53 56 57 55 52 44 34 26 24 25 19 9 10 11 11 9 14
77 75 74 73 76 75 74 69 58 55 54 51 48 49 51 54 58 61 67 65 61 59 58 57 51 44 38 36 38 39 41 40 42 45 48 49 51 54 56 55 52 47 38 30 27 25 23 14 10 10 10 8 8 13
75 75 72 63 65 69 64 54 50 52 52 52 55 60 62 71 72 68 67 67 63 60 57 47 38 35 36 37 38 38 38 40 44 46 47 50 52 55 55 52 46 39 31 27 24 21 16 10 10 8 8 7 8 12
81 72 68 63 60 62 56 54 55 59 60 62 63 67 70 70 70 68 65 62 58 50 41 36 34 34 35 36 37 36 38 42 43 45 48 51 52 55 51 45 34 31 25 21 17 15 10 11 10 7 7 6 7 10
69 69 67 58 56 54 61 63 67 67 71 66 64 65 69 72 69 66 62 53 44 37 33 33 32 32 33 33 34 36 41 41 45 46 49 51 53 48 43 37 27 24 21 14 10 9 8 12 10 7 7 6 8 10
74 74 67 69 69 66 73 78 83 82 72 69 74 77 74 70 64 55 44 34 32 32 31 30 32 32 29 31 34 38 41 44 45 48 51 51 47 41 36 27 20 18 15 11 10 9 9 14 11 9 8 6 8 9
71 66 68 69 72 76 76 72 73 72 72 70 73 69 61 45 34 31 30 31 32 31 30 29 27 28 32 34 36 39 41 43 45 50 52 46 40 33 27 18 14 14 12 11 7 6 5 13 13 9 9 7 7 8
59 57 59 60 60 61 66 68 67 68 68 63 57 42 32 32 32 31 30 30 28 25 24 27 29 31 32 36 37 40 41 44 48 50 46 40 32 26 21 15 13 12 11 7 5 8 8 13 15 12 10 8 8 8
52 53 54 57 60 60 60 59 59 51 38 36 34 32 30 30 29 29 27 26 26 28 29 29 30 33 36 38 39 39 43 47 48 44 38 33 26 22 20 17 15 13 11 9 9 10 8 9 15 14 13 11 9 8
55 55 54 55 50 47 43 39 36 34 32 30 29 28 27 27 26 26 26 27 28 29 29 31 34 36 36 38 38 40 45 45 42 38 31 26 21 16 19 20 16 13 13 11 10 9 9 10 13 15 14 11 10 8
39 39 38 38 38 38 36 34 31 30 27 27 26 26 25 25 25 27 27 27 27 29 31 32 34 35 35 37 40 42 41 38 36 32 26 22 16 14 16 25 20 14 14 11 11 11 9 11 13 14 14 12 10 9
40 37 36 35 33 32 30 29 28 28 27 26 25 24 24 25 24 24 25 26 27 28 31 32 33 35 37 40 40 38 36 33 29 26 21 19 15 14 16 23 27 21 18 15 12 10 11 10 12 14 15 14 12 11
36 34 32 31 30 29 29 28 26 25 24 25 23 22 22 22 22 22 23 23 26 27 28 29 31 34 36 36 35 32 29 25 23 21 18 17 16 14 13 18 26 24 22 19 15 12 11 11 10 13 14 14 13 11
32 31 31 31 30 29 28 26 24 23 21 21 20 20 19 18 19 19 19 20 21 24 26 27 28 29 29 28 24 20 18 16 16 19 17 16 16 15 13 12 24 24 22 21 18 14 12 11 11 12 13 13 13 12
32 29 28 27 27 26 24 22 21 19 19 18 17 16 15 14 13 14 17 18 19 18 18 20 20 20 20 19 18 19 17 14 13 13 14 14 15 14 11 13 17 23 22 23 21 17 15 12 13 13 13 13 13 12
27 27 24 21 20 19 18 16 16 16 15 14 14 14 13 14 14 12 12 13 13 13 15 17 16 15 16 17 16 16 14 12 11 12 12 13 13 12 13 11 13 18 24 22 22 20 17 15 13 15 15 15 13 12
27 23 20 16 17 16 18 19 18 16 16 15 14 13 10 6 5 7 9 11 13 18 20 19 16 17 18 18 17 15 14 13 12 12 13 14 12 12 11 13 13 13 18 22 20 21 18 17 14 15 14 13 12 12
23 20 14 16 18 19 18 18 17 15 15 12 10 7 3 3 5 8 12 16 18 20 20 18 18 17 14 14 14 13 14 14 15 15 15 15 12 12 12 13 13 15 19 20 18 20 18 18 18 16 15 14 13 12
25 25 24 22 20 18 19 19 19 18 14 11 8 5 4 5 7 13 15 15 17 20 19 17 15 13 15 16 15 15 16 17 16 17 17 18 18 16 14 15 16 16 20 21 20 21 20 21 21 20 19 18 17 16
20 20 20 21 22 20 20 19 18 12 10 8 7 7 8 9 11 12 12 12 15 18 18 15 13 13 15 14 15 16 15 19 16 18 18 18 19 19 16 15 17 17 22 21 21 23 23 23 22 22 21 20 19 18
14 14 17 17 20 21 20 23 20 17 13 11 10 11 11 10 10 13 12 13 17 19 18 13 14 12 11 11 12 15 15 17 12 13 17 17 17 17 16 15 17 17 23 23 22 23 25 24 23 22 21 20 20 19
17 18 18 18 21 23 25 25 22 18 15 14 14 14 11 10 12 17 16 14 17 21 19 15 17 19 17 15 15 14 15 15 14 12 14 18 17 17 16 16 18 18 23 27 26 24 26 27 25 24 22 21 21 20
20 17 12 15 21 26 28 26 25 20 18 17 17 15 15 14 14 14 20 15 19 24 23 19 17 19 21 21 20 19 19 18 17 16 15 17 19 20 18 17 19 17 20 27 29 28 27 29 28 27 26 25 24 23
21 20 15 15 23 27 28 27 25 22 19 15 14 13 12 15 17 18 18 17 21 24 24 21 20 20 21 23 24 25 25 24 22 21 19 20 19 21 21 21 20 20 20 24 27 29 28 27 29 30 30 28 27 25
Wind_Direction
225 227 229 231 234 237 240 242 245 249 252 254 254 256 260 263 267 270 273 280 287 291 292 293 295 299 300 303 311 315 316 317 318 317 315 312 314 315 316 318 323 323 325 327 328 324 329 328 329 328 333 341 345 358
228 230 232 234 237 239 242 244 246 250 250 250 256 259 261 265 267 270 273 276 283 283 289 296 298 300 299 302 304 310 314 318 316 313 313 313 313 315 316 319 322 324 327 328 328 325 329 327 326 333 335 343 3 353
229 232 234 236 238 242 244 246 247 248 250 249 257 259 259 264 268 270 274 279 285 287 283 292 298 304 306 304 307 308 307 312 312 312 310 310 311 313 318 321 324 326 327 326 326 326 331 327 333 330 330 348 354 347
231 233 235 237 240 243 245 246 248 251 250 253 255 256 258 265 266 269 273 279 280 284 291 294 300 303 304 302 306 306 307 311 310 309 310 311 310 314 319 321 324 325 326 323 323 329 334 323 326 330 329 343 349 347
231 234 237 240 241 244 247 248 249 251 252 256 256 255 260 263 266 270 271 273 278 285 288 290 294 299 302 301 299 301 307 310 309 309 308 308 312 315 319 321 325 324 322 323 325 329 327 332 330 333 343 343 340 345
232 235 237 240 242 245 248 250 250 252 252 256 267 265 259 261 264 268 270 272 274 281 286 290 290 294 299 299 297 300 307 308 305 305 305 308 312 316 319 322 323 321 322 323 328 330 322 325 332 337 341 336 339 341
230 233 237 240 242 245 248 250 250 254 258 260 265 268 259 260 262 265 266 270 280 280 282 286 288 292 296 297 301 301 304 303 301 301 306 310 315 316 319 321 321 320 322 322 325 327 320 317 317 310 327 334 335 339
230 232 235 239 240 243 248 249 253 256 256 259 267 264 258 263 263 265 271 275 278 284 278 281 290 291 294 298 300 299 300 298 299 303 307 311 312 317 319 319 318 319 321 322 317 314 323 312 302 307 327 332 324 337
230 233 236 238 242 242 246 250 253 256 257 262 260 258 259 263 266 272 274 277 279 281 279 283 290 292 295 297 296 295 294 294 298 303 308 310 314 316 318 317 318 319 320 320 308 296 306 310 292 304 320 325 319 337
233 232 236 242 245 247 246 251 257 255 253 255 257 258 264 267 272 277 281 281 280 278 279 285 292 293 294 294 290 288 290 291 298 305 307 312 313 317 318 318 317 317 318 316 304 290 292 300 281 299 318 322 316 338
233 237 237 238 241 246 255 250 245 244 243 248 255 262 267 270 275 275 275 279 276 280 284 290 290 290 289 285 283 285 288 295 303 306 312 314 313 314 315 315 316 317 319 309 300 300 297 281 267 288 315 312 313 335
228 233 234 239 245 247 242 238 239 242 242 250 257 262 268 264 268 271 274 270 273 281 286 287 283 281 280 280 281 286 294 305 308 311 310 310 312 312 312 314 315 317 316 309 308 304 290 259 249 271 303 296 302 327
229 232 236 238 243 241 245 243 243 244 246 254 259 261 264 263 264 266 269 271 277 282 279 277 275 276 277 278 282 294 303 305 308 305 305 307 311 310 313 314 312 315 314 311 309 305 288 226 235 257 292 288 288 316
225 230 235 233 236 239 243 241 246 251 256 252 251 255 257 259 261 265 271 275 276 272 270 269 271 272 277 283 292 302 301 303 301 302 303 307 308 313 314 312 307 307 300 308 314 307 291 211 222 239 276 292 279 301
217 229 228 233 238 238 244 248 248 250 248 248 253 256 255 258 263 268 271 264 262 263 264 266 270 273 282 293 299 299 297 297 298 299 303 306 308 311 309 304 297 291 282 297 305 303 288 210 214 229 261 291 277 292
217 223 229 232 234 235 235 237 241 244 247 247 248 251 257 262 262 256 254 257 259 258 264 270 275 283 290 292 294 293 294 295 296 297 301 305 308 304 295 284 273 271 276 291 292 287 245 207 209 221 249 280 274 280
216 219 223 225 229 232 235 237 240 239 241 246 256 253 248 246 247 250 257 257 258 258 268 275 280 282 289 288 289 291 294 293 294 297 301 303 301 291 275 251 246 258 270 265 226 284 255 214 212 223 244 271 274 264
216 222 226 229 231 231 229 232 237 244 245 238 231 234 240 244 247 252 253 253 261 272 278 280 283 284 286 287 289 290 289 291 294 298 299 300 298 285 253 234 236 244 259 268 259 272 271 238 224 229 243 262 270 253
212 215 218 222 224 227 230 227 226 223 224 228 233 236 239 244 249 249 256 269 276 277 275 276 278 281 282 284 288 290 290 294 298 298 298 298 292 278 242 229 231 238 253 268 258 265 263 235 227 230 239 248 254 239
200 204 207 213 217 219 217 218 221 224 226 230 234 237 240 240 249 261 269 270 271 270 273 276 278 279 282 287 291 292 295 296 293 293 291 286 283 264 250 227 226 233 241 244 254 253 261 239 227 230 232 234 231 218
211 210 210 209 209 210 213 216 219 221 224 226 229 232 247 257 259 261 264 266 268 271 274 277 280 285 289 293 296 298 293 289 287 282 276 275 271 251 262 233 222 230 235 234 242 247 250 252 228 226 228 219 211 201
201 201 201 204 205 208 208 210 213 214 217 225 237 246 247 251 253 256 260 265 271 276 280 285 291 296 298 298 296 293 288 281 270 262 263 262 260 253 275 237 219 220 228 237 239 245 245 244 235 218 214 206 200 193
197 201 200 202 202 201 204 207 214 223 228 232 234 236 236 240 248 258 263 273 281 288 293 296 297 297 294 293 295 299 295 282 270 263 264 258 253 255 265 251 222 224 230 234 233 236 241 233 225 214 208 203 199 197
189 191 193 198 202 206 211 210 212 214 218 218 220 226 236 246 257 266 273 282 291 295 298 301 304 303 303 310 321 324 320 306 285 272 255 248 249 255 265 246 234 229 235 235 228 227 232 228 216 212 206 202 198 200
196 200 202 200 201 203 207 209 208 213 218 223 228 236 243 252 256 267 284 292 300 308 323 324 317 316 321 326 326 320 310 296 282 270 256 247 250 259 258 253 240 235 229 227 226 223 225 220 212 208 203 198 198 200
197 200 208 215 217 217 214 214 215 217 218 224 227 231 226 240 274 299 312 326 334 342 341 333 322 319 315 313 317 316 305 289 269 260 254 247 250 256 251 239 235 235 226 221 218 217 222 215 207 200 197 197 199 203
205 208 225 229 217 211 211 207 206 206 201 200 202 205 208 258 309 334 342 342 343 346 341 327 318 316 319 322 315 307 311 285 265 258 248 239 244 246 247 242 245 239 221 216 217 211 218 217 210 207 205 205 208 211
224 235 234 221 211 200 205 204 200 191 191 198 208 213 230 264 315 334 332 330 339 345 335 318 310 315 321 329 328 314 294 308 270 254 251 243 242 247 257 257 242 240 216 213 212 206 211 213 208 207 206 209 211 212
185 188 194 197 192 190 194 190 188 191 197 208 224 243 270 289 313 320 320 317 323 331 325 304 286 294 310 327 327 321 308 314 285 246 246 249 245 244 257 254 233 229 213 214 212 208 206 207 208 206 205 210 213 216
204 197 191 194 197 196 189 185 188 198 202 212 230 247 255 276 295 307 315 319 330 330 321 286 267 277 298 312 319 330 330 332 307 254 241 244 245 244 250 244 232 227 216 216 217 215 208 210 213 216 218 221 224 226
181 176 175 179 186 184 185 191 199 200 206 221 232 230 245 264 298 308 310 328 335 331 321 303 270 265 272 286 298 310 321 329 329 300 260 247 246 246 245 241 237 241 227 219 218 220 216 215 218 223 226 227 228 232
184 179 176 188 191 193 195 199 203 208 219 229 233 245 254 268 286 289 291 311 335 332 325 310 293 275 269 274 284 291 296 303 306 298 285 263 251 246 246 245 240 245 229 219 220 221 223 222 223 227 232 237 239 240
196 204 209 206 201 201 202 204 204 207 218 230 240 250 279 291 293 287 279 292 320 321 322 314 300 294 289 282 279 280 284 288 293 291 277 263 259 247 243 241 239 238 234 226 223 222 226 228 230 233 238 243 248 251